Content
SEND FEEDBACK

Daily
Averages
Monthly
Summary
United States of America

TROY, TEXAS


Home > North America > United States > Texas
Elevation: 660 feet     Latitude: 31 12N     Longitude: 097 18W

WEATHER
 
SELECT A DAY
Number of Records: 429,817;   Date Range: 1/1/95 - 9/22/14
 
SHARE

PRINT THIS DATA

[ ← Previous Day ]
WEATHER ALMANAC - JANUARY 31, 2013
[ Next Day → ]
[ °C ]   °F
Weather ElementAverageHighLow
Temperature48.2 °F68 °F (2:35 pm)28.4 °F (6:35 am)
Dewpoint19.4 °F23 °F (8:55 am)15.8 °F (1:35 pm)
Humidity37.2 %64 % (2:35 am)15 % (1:15 pm)
Barometer25.76 in30.27 in (10:35 am) (7:00 pm)
Wind Speed8.6 mph16.1 mph (10:55 am)
Wind Gust21.9 mph (2:55 pm)
Weather ElementAverage
Visibility10 mi
Wind DirectionS (178.4 °)

Weather ElementTotal
Precipitation---
Heating Degree Days16.8 (Base 65)
Averaged from 68 records on January 31, 2013
WEATHER CONDITIONS BREAKOUT
WIND DIRECTION BREAKOUT
WEATHER BY HOUR - JANUARY 31, 2013
[ °C ]   °F
Local TimeTemperatureDewpointHumidityBarometerVisibilityWind DirectionWind SpeedGust SpeedPrecipitationEventsConditions
12:35 AM32.0 °F19.4 °F60 %30.20 in10.0 miCalmClear
12:55 AM33.8 °F19.4 °F56 %30.20 in10.0 miSSE (160°)4.6 mphClear
1:15 AM32.0 °F19.4 °F60 %30.20 in10.0 miSouth (170°)5.8 mphClear
1:35 AM32.0 °F19.4 °F60 %30.21 in10.0 miSouth (180°)6.9 mphClear
1:55 AM33.8 °F21.2 °F60 %30.20 in10.0 miSouth (190°)8.1 mphClear
2:15 AM33.8 °F21.2 °F60 %30.20 in10.0 miSouth (190°)8.1 mphClear
2:35 AM30.2 °F19.4 °F64 %30.20 in10.0 miSouth (180°)4.6 mphClear
2:55 AM30.2 °F19.4 °F64 %30.20 in10.0 miSSE (160°)4.6 mphClear
3:15 AM32.0 °F19.4 °F60 %30.19 in10.0 miCalmClear
3:35 AM33.8 °F19.4 °F56 %30.19 in10.0 miSSE (160°)3.5 mphClear
3:55 AM33.8 °F19.4 °F56 %30.19 in10.0 miSE (140°)3.5 mphClear
4:15 AM33.8 °F17.6 °F52 %30.19 in10.0 miSE (140°)3.5 mphClear
4:35 AM33.8 °F17.6 °F52 %30.18 in10.0 miCalmClear
4:55 AM35.6 °F17.6 °F48 %30.17 in10.0 miCalmClear
5:15 AM30.2 °F17.6 °F60 %30.19 in10.0 miSE (140°)6.9 mphClear
5:35 AM30.2 °F19.4 °F64 %30.19 in10.0 miSouth (180°)4.6 mphClear
5:55 AM30.2 °F19.4 °F64 %30.20 in10.0 miSouth (190°)5.8 mphClear
6:15 AM30.2 °F19.4 °F64 %30.20 in10.0 miSouth (180°)5.8 mphClear
6:35 AM28.4 °F17.6 °F64 %30.20 in10.0 miSSE (160°)5.8 mphClear
6:55 AM30.2 °F19.4 °F64 %30.21 in10.0 miSouth (180°)5.8 mphClear
7:15 AM30.2 °F19.4 °F64 %30.22 in10.0 miSouth (180°)8.1 mphClear
7:35 AM30.2 °F19.4 °F64 %10.0 miSouth (190°)4.6 mphClear
7:55 AM32.0 °F21.2 °F64 %10.0 miSouth (170°)4.6 mphClear
8:15 AM33.8 °F21.2 °F60 %10.0 miSouth (170°)5.8 mphClear
8:35 AM37.4 °F21.2 °F52 %10.0 miSouth (180°)5.8 mphClear
8:55 AM39.2 °F23.0 °F52 %10.0 miSouth (170°)5.8 mphClear
9:15 AM44.6 °F23.0 °F43 %10.0 miSW (220°)5.8 mphClear
9:35 AM48.2 °F19.4 °F32 %10.0 miSW (220°)13.8 mphClear
9:55 AM51.8 °F19.4 °F28 %10.0 miSW (220°)13.8 mphClear
10:15 AM53.6 °F19.4 °F26 %30.26 in10.0 miSW (220°)15.0 mphClear
10:35 AM55.4 °F19.4 °F25 %30.27 in10.0 miSW (220°)13.8 mphClear
10:55 AM57.2 °F19.4 °F23 %30.27 in10.0 miSW (230°)16.1 mphClear
11:15 AM57.2 °F19.4 °F23 %30.26 in10.0 miSW (230°)11.5 mphClear
11:35 AM59.0 °F19.4 °F22 %30.26 in10.0 miWSW (240°)13.8 mphClear
11:55 AM60.8 °F19.4 °F20 %30.25 in10.0 miSSW (210°)8.1 mphClear
12:15 PM62.6 °F21.2 °F20 %10.0 miSSW (200°)10.4 mphClear
12:35 PM62.6 °F19.4 °F19 %30.23 in10.0 miWSW (250°)15.0 mph19.6 mphClear
12:55 PM64.4 °F17.6 °F16 %30.22 in10.0 miSSW (210°)13.8 mph19.6 mphClear
1:15 PM66.2 °F17.6 °F15 %30.21 in10.0 miSW (230°)15.0 mph19.6 mphClear
1:35 PM64.4 °F15.8 °F15 %30.20 in10.0 miSW (220°)13.8 mphClear
1:55 PM66.2 °F17.6 °F15 %30.19 in10.0 miSSW (210°)15.0 mphClear
2:15 PM66.2 °F17.6 °F15 %30.19 in10.0 miSSW (210°)13.8 mph20.7 mphClear
2:35 PM68.0 °F17.6 °F15 %30.18 in10.0 miSSW (210°)10.4 mph20.7 mphClear
2:55 PM68.0 °F17.6 °F15 %30.17 in10.0 miWSW (240°)15.0 mph21.9 mphClear
3:15 PM68.0 °F17.6 °F15 %30.16 in10.0 miSSW (210°)10.4 mphClear
3:35 PM68.0 °F17.6 °F15 %10.0 miSW (220°)13.8 mph21.9 mphClear
3:55 PM68.0 °F17.6 °F15 %30.15 in10.0 miSSW (200°)15.0 mphClear
4:15 PM68.0 °F17.6 °F15 %30.15 in10.0 miSSW (210°)16.1 mphClear
4:35 PM66.2 °F17.6 °F15 %30.15 in10.0 miSW (220°)13.8 mphClear
4:55 PM66.2 °F17.6 °F15 %30.15 in10.0 miSW (220°)13.8 mphClear
5:15 PM66.2 °F17.6 °F15 %30.16 in10.0 miSSW (200°)11.5 mphClear
5:35 PM64.4 °F17.6 °F16 %30.16 in10.0 miSouth (180°)8.1 mphClear
5:55 PM60.8 °F19.4 °F20 %30.16 in10.0 miSouth (180°)6.9 mphClear
6:15 PM57.2 °F19.4 °F23 %30.16 in10.0 miSouth (170°)8.1 mphClear
6:35 PM55.4 °F19.4 °F25 %30.17 in10.0 miSouth (180°)8.1 mphClear
7:15 PM55.4 °F19.4 °F25 %30.20 in10.0 miSSE (160°)6.9 mphClear
7:35 PM53.6 °F19.4 °F26 %30.21 in10.0 miSouth (170°)6.9 mphClear
7:55 PM53.6 °F19.4 °F26 %30.22 in10.0 miSouth (170°)8.1 mphClear
8:15 PM51.8 °F19.4 °F28 %30.23 in10.0 miSouth (170°)8.1 mphClear
8:35 PM53.6 °F19.4 °F26 %30.24 in10.0 miSouth (170°)11.5 mphClear
9:15 PM48.2 °F21.2 °F34 %30.24 in10.0 miSouth (170°)9.2 mphClear
9:35 PM48.2 °F21.2 °F34 %30.24 in10.0 miSouth (180°)8.1 mphClear
9:55 PM46.4 °F21.2 °F37 %30.25 in10.0 miSSE (160°)8.1 mphClear
10:15 PM48.2 °F21.2 °F34 %30.25 in10.0 miSSE (160°)9.2 mphClear
10:35 PM48.2 °F23.0 °F37 %30.26 in10.0 miSouth (170°)8.1 mphClear
10:55 PM48.2 °F23.0 °F37 %30.26 in10.0 miSSE (160°)6.9 mphClear
11:15 PM48.2 °F21.2 °F34 %30.26 in10.0 miSouth (180°)4.6 mphClear
11:35 PM48.2 °F21.2 °F34 %30.26 in10.0 miSouth (170°)4.6 mphClear
Hourly data recorded from KTPL, located miles away from Troy, Texas







STORIES FROM OUR PARTNERS